SkyBee-AO2

operational
NORAD ID: 64544 Int'l Des: 2025-135 Owner: CNSTR Country: D
LEOCIRCULARRETROGRADESSO

About SkyBee-AO2

Description loading...

Live Position

Loading 3D Globe...

Upcoming Passes

Altitude History

Altitude vs Time

uPlot chart will show altitude changes over time

Two-Line Element Set

1 64544U 25135S 26022.48372815 .00004803 00000-0 23172-3 0 9992
2 64544 97.4594 138.9239 0000697 1.3307 358.7929 15.19159034 32707
Epoch: Jan 22, 2026 • Age: 18 hours

Current Status

Altitude 520.8 km
Velocity 7.61 km/s
Sub-Earth Point 72.90°N, 87.83°W
Launch Date Jun 23, 2025
Age 0.5 years
Type other

Technical Details

Classification Payload
Mass 110.00 kg
Dry Mass 110.00 kg
Total Mass 110.00 kg
Length 0.40 m
Diameter 0.20 m
Span 1.00 m
Shape Box+ 2 pan
Manufacturer NANAV
Bus Type Cubesat 16U MP42
Phase Status In Orbit
Owner/State CNSTR/D

Large Constellations

Loading constellations...